Hourly Data Report for September 10, 2017

All times are specified in Local Standard Time (LST). Add 1 hour to adjust for Daylight Saving Time where and when it is observed.

SANDY LAKE A
ONTARIO

53°03'51.000" N
93°20'40.000" W
289.90 m
6017401
71587
ZSJ

Download Data

Hourly Data (September 2017)
Hourly Data Report for September 10, 2017
Temp Definition
°C
Dew Point Temp Definition
°C
Rel Hum Definition
%
Wind Dir Definition
10's deg

Wind Spd Definition
km/h
Visibility Definition
km
Stn Press Definition
kPa
Hmdx Definition


Wind Chill Definition


Weather Definition


TIME
00:00 Legend Double Dagger 15.8 9.3 65 LegendMM LegendMM 16.1 98.28     LegendNANA
01:00 Legend Double Dagger 15.7 9.4 66 LegendMM LegendMM 16.1 98.26     LegendNANA
02:00 Legend Double Dagger 15.4 9.8 69 LegendMM LegendMM 16.1 98.22     LegendNANA
03:00 Legend Double Dagger 14.9 10.0 72 LegendMM LegendMM 16.1 98.15     LegendNANA
04:00 Legend Double Dagger 14.8 10.5 75 LegendMM LegendMM 16.1 98.11     LegendNANA
05:00 Legend Double Dagger 14.7 10.9 78 LegendMM LegendMM 16.1 98.11     LegendNANA
06:00 Legend Double Dagger 14.7 11.5 81 LegendMM LegendMM 16.1 98.10     LegendNANA
07:00 Legend Double Dagger 15.6 12.2 80 LegendMM LegendMM 16.1 98.08     LegendNANA
08:00 Legend Double Dagger 16.8 13.0 78 18 11 16.1 98.03     LegendNANA
09:00 Legend Double Dagger 18.9 14.1 73 17 13 16.1 97.98     LegendNANA
10:00 Legend Double Dagger 21.0 14.8 67 18 15 16.1 97.92 25   LegendNANA
11:00 Legend Double Dagger 22.7 15.0 62 18 15 16.1 97.86 27   LegendNANA
12:00 Legend Double Dagger 24.2 14.7 55 18 15 16.1 97.76 28   LegendNANA
13:00 Legend Double Dagger 25.7 14.5 50 18 18 16.1 97.66 29   LegendNANA
14:00 Legend Double Dagger 26.7 14.1 45 18 18 16.1 97.52 30   LegendNANA
15:00 Legend Double Dagger 27.4 13.2 41 19 21 16.1 97.47 30   LegendNANA
16:00 Legend Double Dagger 27.2 13.6 43 19 15 16.1 97.39 30   LegendNANA
17:00 Legend Double Dagger 26.5 13.8 45 18 13 16.1 97.34 30   LegendNANA
18:00 Legend Double Dagger 25.2 13.5 48 19 11 16.1 97.31 28   LegendNANA
19:00 Legend Double Dagger 23.8 14.1 54 18 15 16.1 97.28 27   LegendNANA
20:00 Legend Double Dagger 23.4 14.6 57 18 15 16.1 97.25 27   LegendNANA
21:00 Legend Double Dagger 23.2 14.8 59 20 15 16.1 97.18 27   Rain
22:00 Legend Double Dagger 22.3 15.0 63 18 15 16.1 97.06 26   LegendNANA
23:00 Legend Double Dagger 22.7 15.2 62 23 13 16.1 97.06 27   LegendNANA

Notes on Data Quality.

Legend

  • E = Estimated
  • M = Missing
  • NA = Not Available
  • ‡ = Partner data that is not subject to review by the National Climate Archives
Date modified: